Location: *
(41.0833°N, 73.4167°W)
Time: 07:43:31
(UTC+00:00)

Cosmos 1937 Rocket - Pass Details

Date: 22 October 2019
Orbit: 747 x 780 km, 74.0° (Epoch: 20 November)

Event Time Altitude Azimuth Distance (km) Brightness Sun altitude
Rises 00:34:20 0° 340° (NNW) 3,201 7.1 -28.9°
Reaches altitude 10° 00:36:42 10° 340° (NNW) 2,272 6.3 -29.3°
Enters shadow 00:40:01 41° 341° (NNW) 1,075 4.4 -29.9°
